sat.trackr.live / text

‹ back to catalog

STARLINK-2590

NORAD 48397 · 2021-038AW

PAYLOAD ACTIVE UNKNOWN

§ Identity

Operator
Country
US
Launch date
2021-05-04
Launch site
AFETR
Launch vehicle
Mass (kg)
RCS (m²)

Purposes: comms

External: N2YO · Heavens-Above · Gunter

§ Orbital elements

Epoch: 2026-09-13T01:43:55.521696Z

Period
94.01 min
Inclination
53.1614°
Eccentricity
0.0001301
Mean motion
15.31699685 rev/d
Perigee alt
469.8 km
Apogee alt
471.6 km
Semi-major
6,848.9 km
B*
1.8418e-5
RAAN
180.6075°
Arg perigee
84.0284°
Mean anomaly
276.0866°
Rev number
29,737

§ Raw data

STARLINK-25901 48397U 21038AW  26256.07217039  .00000206  00000+0  18418-4 0  99982 48397  53.1614 180.6075 0001301  84.0284 276.0866 15.31699685297377

JSON: /api/v1/satellites/48397 · /tle

For live sub-satellite position, see the globe view (requires WebGL).

§ Visibility from observer

Set your observer location to see the next 7 days of passes ≥ 10°. The values pass through the URL so the page stays shareable.

No JS? Fill the form by hand. The geolocation button needs JavaScript.